Change the Weather History Date:

Thursday, May 15, 2014

  Actual Average Record
Temperature  
Mean Temperature 55 °F 53 °F  
Max Temperature 75 °F 67 °F 88 °F (1954)
Min Temperature 35 °F 39 °F 27 °F (1986)
Degree Days  
Heating Degree Days 10 12  
Month to date heating degree days 220 214  
Since 1 July heating degree days 7129 7527  
Cooling Degree Days 0 0  
Month to date cooling degree days 0 0  
Year to date cooling degree days 0 0  
Growing Degree Days 6 (Base 50)    
Moisture  
Dew Point 34 °F    
Average Humidity 56    
Maximum Humidity 89    
Minimum Humidity 23    
Precipitation  
Precipitation 0.00 in 0.05 in 0.44 in (1999)
Month to date precipitation 0.12 0.70  
Year to date precipitation 3.38 4.05  
Sea Level Pressure  
Sea Level Pressure 30.15 in    
Wind  
Wind Speed 8 mph (SSW)    
Max Wind Speed 20 mph    
Max Gust Speed 24 mph    
Visibility 10 miles    
Events      
T = Trace of Precipitation, MM = Missing Value Source: NWS Daily Summary

Daily Weather History Graph

Daily Weather History Graph

Search for Another Location

Airport or City:

Trip Planner

Search our weather history database for the weather conditions in past years. The results will help you decide how hot, cold, wet, or windy it might be!

Date:

Astronomy

May. 15, 2014 Rise Set
Actual Time 6:03 AM MDT 8:46 PM MDT
Civil Twilight 5:30 AM MDT 9:19 PM MDT
Nautical Twilight 4:48 AM MDT 10:01 PM MDT
Astronomical Twilight 4:01 AM MDT 10:49 PM MDT
Moon 9:58 PM MDT (5/15) 6:54 AM MDT (5/15)
Length of Visible Light 15h 49m
Length of Day
14h 42m
Full, 99% of the Moon is Illuminated
May 15
Full
May 21
Last Quarter
May 28
New
Jun 5
First Quarter
Jun 12
Full

Hourly Weather History & Observations

Time (MDT) Temp. Windchill Dew Point Humidity Pressure Visibility Wind Dir Wind Speed Gust Speed Precip Events Conditions
12:53 AM 51.1 °F - 35.1 °F 54% 30.20 in 10.0 mi SW 9.2 mph - N/A   Clear
1:53 AM 46.0 °F - 36.0 °F 68% 30.21 in 10.0 mi Calm Calm - N/A   Clear
2:53 AM 41.0 °F 38.0 °F 34.0 °F 76% 30.23 in 10.0 mi North 4.6 mph - N/A   Clear
3:53 AM 39.0 °F 35.7 °F 34.0 °F 82% 30.23 in 10.0 mi NNW 4.6 mph - N/A   Clear
4:53 AM 37.9 °F - 33.1 °F 83% 30.24 in 10.0 mi Calm Calm - N/A   Clear
5:53 AM 36.0 °F - 32.0 °F 86% 30.25 in 10.0 mi Calm Calm - N/A   Clear
6:53 AM 36.0 °F - 32.0 °F 86% 30.25 in 10.0 mi Calm Calm - N/A   Clear
7:53 AM 46.0 °F - 36.0 °F 68% 30.23 in 10.0 mi Calm Calm - N/A   Clear
8:53 AM 52.0 °F - 37.0 °F 57% 30.23 in 10.0 mi SW 5.8 mph - N/A   Clear
9:53 AM 59.0 °F - 36.0 °F 42% 30.21 in 10.0 mi SSW 6.9 mph - N/A   Partly Cloudy
10:53 AM 63.0 °F - 34.0 °F 34% 30.20 in 10.0 mi SSW 6.9 mph - N/A   Clear
11:53 AM 66.0 °F - 33.1 °F 29% 30.19 in 10.0 mi Variable 3.5 mph - N/A   Clear
1:53 PM 72.0 °F - 32.0 °F 23% 30.15 in 10.0 mi South 10.4 mph 21.9 mph N/A   Clear
2:53 PM 71.1 °F - 32.0 °F 24% 30.14 in 10.0 mi South 13.8 mph - N/A   Partly Cloudy
3:53 PM 71.1 °F - 34.0 °F 26% 30.13 in 10.0 mi South 13.8 mph - N/A   Mostly Cloudy
4:53 PM 71.1 °F - 35.1 °F 27% 30.11 in 10.0 mi South 17.3 mph - N/A   Mostly Cloudy
5:53 PM 75.0 °F - 36.0 °F 24% 30.08 in 10.0 mi South 17.3 mph - N/A   Clear
6:53 PM 75.0 °F - 36.0 °F 24% 30.05 in 10.0 mi South 16.1 mph - N/A   Clear
7:53 PM 71.1 °F - 34.0 °F 26% 30.02 in 10.0 mi South 15.0 mph - N/A   Clear
8:53 PM 68.0 °F - 32.0 °F 26% 30.01 in 10.0 mi South 12.7 mph - N/A   Clear
9:53 PM 64.9 °F - 32.0 °F 29% 30.00 in 10.0 mi South 15.0 mph - N/A   Clear
10:53 PM 59.0 °F - 32.0 °F 36% 30.00 in 10.0 mi SSW 10.4 mph - N/A   Clear
11:53 PM 57.9 °F - 33.1 °F 39% 29.99 in 10.0 mi WSW 6.9 mph - N/A   Clear